Date String (YYYY-MM-DD hh:mm:ss) UTC,Instrument flags,Ambient pressure (hPa),Sample flow (lpm),Bypass flow (lpm),Sample temperature (°C),Ambient temperature (°C),ASC tube jacket temperature (°C),LED temperature (°C),Box temperature (°C),Sample RH (%),Span deviation,Mass concentration (μg/m³),Mass concentration (μg/m³),Mass concentration (μg/m³)
DateTimeUTC,F1_M11,P_M11,Q1_M11,Q2_M11,T1_M11,T2_M11,T3_M11,T4_M11,T5_M11,U1_M11,ZSPAN_M11,X0_M11,X2_M11,X1_M11
2021-10-04 21:00:00,,0831.3,4.99,0.00,29.2,27.2,00.0,38.3,30.9,11.9,0001.0,0011.94,0003.94,0003.46
2021-10-04 21:01:00,,0831.3,5.00,0.00,29.3,27.6,00.0,38.3,31.1,11.8,0000.2,0012.14,0003.95,0003.45
2021-10-04 21:02:00,,0831.2,5.00,0.00,29.3,27.9,00.0,38.3,31.2,11.7,0000.0,0012.17,0003.95,0003.45
2021-10-04 21:03:00,,0831.2,4.99,0.00,29.4,28.2,00.0,38.3,31.3,12.0,0000.0,0012.86,0003.98,0003.45
2021-10-04 21:04:00,,0831.2,5.00,0.00,29.4,28.4,00.0,38.3,31.3,12.2,0000.0,0013.17,0003.98,0003.45
2021-10-04 21:05:00,,0831.2,5.00,0.00,29.5,28.6,00.0,38.4,31.4,12.3,0000.0,0013.76,0004.00,0003.45
2021-10-04 21:06:00,,0831.2,5.00,0.00,29.5,27.9,00.0,38.4,31.2,12.1,0000.0,0013.28,0004.02,0003.46
2021-10-04 21:07:00,,0831.2,5.00,0.00,29.4,26.6,00.0,38.4,30.9,12.3,0000.0,0012.31,0004.01,0003.45
2021-10-04 21:08:00,,0831.2,5.00,0.00,29.3,26.7,00.0,38.4,30.9,12.1,0000.0,0010.31,0003.99,0003.45
2021-10-04 21:09:00,,0831.2,5.00,0.00,29.3,27.1,00.0,38.4,31.0,11.8,0000.0,0010.20,0003.98,0003.45
2021-10-04 21:10:00,,0831.2,4.98,0.00,29.3,27.4,00.0,38.3,31.1,11.8,0000.2,0009.99,0003.98,0003.46
2021-10-04 21:11:00,,0831.2,5.02,0.00,29.4,27.8,00.0,38.3,31.1,12.0,0000.0,0009.84,0003.99,0003.46
2021-10-04 21:12:00,,0831.2,5.01,0.00,29.4,28.1,00.0,38.4,31.2,11.8,0001.1,0009.63,0003.96,0003.47
2021-10-04 21:13:00,,0831.2,4.99,0.00,29.5,28.4,00.0,38.4,31.3,11.9,0001.5,0009.17,0003.92,0003.48
2021-10-04 21:14:00,,0831.2,4.99,0.00,29.5,28.6,00.0,38.4,31.4,11.5,0001.7,0008.57,0003.92,0003.49
2021-10-04 21:15:00,,0831.2,5.00,0.00,29.6,28.0,00.0,38.4,31.3,11.5,0001.9,0008.48,0003.93,0003.49
2021-10-04 21:16:00,,0831.2,5.00,0.00,29.4,26.1,00.0,38.4,30.7,11.4,0001.5,0007.73,0003.91,0003.49
2021-10-04 21:17:00,,0831.2,5.00,0.00,29.2,25.7,00.0,38.4,30.5,11.7,0001.1,0007.97,0003.93,0003.48
2021-10-04 21:18:00,,0831.2,5.00,0.00,29.2,26.1,00.0,38.4,30.7,11.8,0000.9,0008.45,0003.98,0003.48
2021-10-04 21:19:00,,0831.2,4.99,0.00,29.2,26.6,00.0,38.3,30.8,11.7,0000.7,0008.78,0004.00,0003.49
2021-10-04 21:20:00,,0831.1,5.00,0.00,29.2,27.1,00.0,38.3,30.9,11.8,0000.7,0009.10,0003.98,0003.49
2021-10-04 21:21:00,,0831.2,5.00,0.00,29.2,27.5,00.0,38.3,31.0,12.3,0000.6,0009.76,0003.99,0003.49
2021-10-04 21:22:00,,0831.1,4.99,0.00,29.3,27.8,00.0,38.3,31.1,11.9,0000.0,0010.62,0003.99,0003.48
2021-10-04 21:23:00,,0831.2,5.00,0.00,29.3,28.1,00.0,38.3,31.2,11.6,0000.0,0010.84,0004.00,0003.46
2021-10-04 21:24:00,,0831.2,5.00,0.00,29.4,28.4,00.0,38.3,31.3,11.9,0000.0,0010.95,0004.01,0003.46
2021-10-04 21:25:00,,0831.2,4.99,0.00,29.5,28.6,00.0,38.3,31.4,11.5,0000.0,0011.14,0004.03,0003.45
2021-10-04 21:26:00,,0831.2,5.00,0.00,29.5,28.7,00.0,38.4,31.5,11.4,0000.0,0012.00,0004.04,0003.46
2021-10-04 21:27:00,,0831.2,5.00,0.00,29.6,28.9,00.0,38.4,31.5,11.4,0000.0,0012.67,0004.07,0003.46
2021-10-04 21:28:00,,0831.2,5.00,0.00,29.6,28.7,00.0,38.4,31.5,11.4,0000.0,0012.41,0004.06,0003.46
2021-10-04 21:29:00,,0831.1,5.00,0.00,29.5,26.9,00.0,38.4,31.0,11.6,0000.0,0012.18,0004.00,0003.46
2021-10-04 21:30:00,,0831.1,5.01,0.00,29.4,25.7,00.0,38.4,30.7,11.6,0000.0,0012.20,0004.00,0003.45
2021-10-04 21:31:00,,0831.0,5.00,0.00,29.3,26.0,00.0,38.4,30.8,11.7,0000.6,0012.86,0004.01,0003.44
2021-10-04 21:32:00,,0831.0,5.00,0.00,29.3,26.5,00.0,38.4,30.9,11.9,0000.4,0013.37,0004.00,0003.43
2021-10-04 21:33:00,,0831.1,4.99,0.00,29.3,26.9,00.0,38.3,31.0,11.6,0000.5,0012.54,0004.02,0003.44
2021-10-04 21:34:00,,0831.1,5.00,0.00,29.3,27.4,00.0,38.3,31.1,11.7,0001.3,0012.41,0004.06,0003.44
2021-10-04 21:35:00,,0831.1,5.01,0.00,29.3,27.8,00.0,38.3,31.2,11.6,0000.4,0012.47,0004.11,0003.44
2021-10-04 21:36:00,,0831.1,4.99,0.00,29.4,28.1,00.0,38.3,31.3,11.6,0000.0,0012.26,0004.11,0003.44
2021-10-04 21:37:00,,0831.1,5.01,0.00,29.4,28.3,00.0,38.4,31.3,11.7,0000.0,0011.79,0004.11,0003.42
2021-10-04 21:38:00,,0831.0,5.01,0.00,29.5,28.6,00.0,38.4,31.4,11.7,0000.0,0011.87,0004.09,0003.42
2021-10-04 21:39:00,,0831.1,5.01,0.00,29.6,28.7,00.0,38.4,31.5,11.6,0001.5,0011.92,0004.06,0003.41
2021-10-04 21:40:00,,0831.1,5.00,0.00,29.6,28.9,00.0,38.4,31.6,11.6,0002.8,0011.80,0004.08,0003.41
2021-10-04 21:41:00,,0831.1,4.99,0.00,29.7,29.0,00.0,38.5,31.6,11.8,0002.7,0013.24,0004.11,0003.41
2021-10-04 21:42:00,,0831.0,5.00,0.00,29.7,27.7,00.0,38.5,31.3,11.6,0002.7,0012.97,0004.11,0003.41
2021-10-04 21:43:00,,0831.0,5.01,0.00,29.5,25.9,00.0,38.5,30.8,11.5,0002.9,0012.09,0004.11,0003.42
2021-10-04 21:44:00,,0831.0,5.00,0.00,29.4,25.9,00.0,38.5,30.8,11.8,0002.4,0012.14,0004.11,0003.41
2021-10-04 21:45:00,,0831.0,5.00,0.00,29.3,26.4,00.0,38.4,30.9,11.8,0002.1,0012.21,0004.10,0003.41
2021-10-04 21:46:00,,0831.0,4.99,0.00,29.3,26.8,00.0,38.4,30.9,11.9,0002.1,0012.36,0004.07,0003.42
2021-10-04 21:47:00,,0831.0,5.01,0.00,29.3,27.3,00.0,38.4,31.1,11.8,0002.2,0013.24,0004.10,0003.41
2021-10-04 21:48:00,,0831.0,4.99,0.00,29.4,27.7,00.0,38.4,31.2,11.8,0002.1,0012.96,0004.08,0003.41
2021-10-04 21:49:00,,0831.0,5.01,0.00,29.4,28.0,00.0,38.4,31.3,11.6,0002.5,0012.35,0004.05,0003.42
2021-10-04 21:50:00,,0831.1,5.01,0.00,29.5,28.3,00.0,38.4,31.4,11.4,0002.1,0012.11,0004.07,0003.42
2021-10-04 21:51:00,,0831.0,4.99,0.00,29.5,28.5,00.0,38.4,31.4,11.6,0002.4,0012.71,0004.09,0003.41
2021-10-04 21:52:00,,0831.1,5.00,0.00,29.6,28.7,00.0,38.5,31.5,11.6,0000.6,0011.96,0004.08,0003.41
2021-10-04 21:53:00,,0831.0,5.00,0.00,29.6,28.9,00.0,38.5,31.6,11.5,0000.0,0011.15,0004.07,0003.40
2021-10-04 21:54:00,,0831.0,5.01,0.00,29.7,28.8,00.0,38.5,31.6,11.5,0000.0,0011.27,0004.06,0003.39
2021-10-04 21:55:00,,0831.0,4.99,0.00,29.6,27.2,00.0,38.5,31.2,11.5,0000.0,0011.34,0004.06,0003.39
2021-10-04 21:56:00,,0830.9,5.01,0.00,29.5,25.8,00.0,38.5,30.8,11.7,0000.0,0011.29,0004.06,0003.40
2021-10-04 21:57:00,,0830.9,5.00,0.00,29.4,26.0,00.0,38.5,30.8,11.6,0000.0,0010.93,0004.03,0003.39
2021-10-04 21:58:00,,0830.9,5.01,0.00,29.3,26.5,00.0,38.4,30.9,11.7,0000.0,0009.98,0004.01,0003.38
2021-10-04 21:59:00,,0830.9,4.99,0.00,29.3,26.9,00.0,38.4,31.0,12.1,0000.0,0009.76,0003.99,0003.37
